Volver al catálogo

FENGYUN 1C DEB

ActivoSSO
NORAD 29956·DEBRIS·🇨🇳 China

Lanzado May 10, 1999 desde Taiyuan Satellite Launch Center

Loading…

Próximos Pases (próximas 24 horas)

TLE

ActualizadoSource: Space-Track

Época: Sep 14, 2026, 14:03 UTC

1 29956U 99025KE  26257.58551440 -.00000037  00000-0  34696-5 0  9994
2 29956  98.7661 283.0512 0052712 322.1720 207.5479 14.06228611  9223

Sigue FENGYUN 1C DEB en tiempo real con AllMySat

Download on the App Store